Location: Erlenbrunn
(49.1717°N, 7.6142°E)
Time: 04:30:50
(UTC+00:00)

CZ-2C R/B - Pass Details

Date: 25 November 2020
Orbit: 705 x 907 km, 98.1° (Epoch: 24 January)

Event Time Altitude Azimuth Distance (km) Brightness Sun altitude
Rises 16:25:47 0° 117° (ESE) 3,255 5.9 -7.8°
Reaches altitude 10° 16:28:50 10° 98° (E) 2,295 5.0 -8.3°
Maximum altitude 16:32:04 18° 58° (ENE) 1,802 4.3 -8.7°
Drops below altitude 10° 16:35:14 10° 18° (NNE) 2,238 5.1 -9.2°
Sets 16:38:08 0° 359° (N) 3,141 6.0 -9.7°
